Du Bois, PA

10:02 PM EDT on April 24, 2017 (GMT -0400)
Du Bois-Jefferson County

Weather History for KDUJ - December, 2013

Change the Weather History Date:

Saturday, December 7, 2013

  Actual Average Record
Temperature  
Mean Temperature 22 °F 31 °F  
Max Temperature 28 °F 37 °F 55 °F (1966)
Min Temperature 15 °F 24 °F 7 °F (1977)
Degree Days  
Heating Degree Days 43 34  
Month to date heating degree days 200 232  
Since 1 July heating degree days 1618 1749  
Cooling Degree Days 0 0  
Month to date cooling degree days 0 0  
Year to date cooling degree days 543 362  
Moisture  
Dew Point 16 °F    
Average Humidity 73    
Maximum Humidity 85    
Minimum Humidity 60    
Precipitation  
Precipitation 0.01 in 0.10 in 1.10 in (1966)
Month to date precipitation 0.71 0.74  
Sea Level Pressure  
Sea Level Pressure 30.39 in    
Wind  
Wind Speed 7 mph (WNW)    
Max Wind Speed 16 mph    
Max Gust Speed 22 mph    
Visibility 10 miles    
Events      
T = Trace of Precipitation, MM = Missing Value Source: NWS Daily Summary

Daily Weather History Graph

Daily Weather History Graph

Search for Another Location

Airport or City:

Trip Planner

Search our weather history database for the weather conditions in past years. The results will help you decide how hot, cold, wet, or windy it might be!

Date:

Astronomy

Dec. 07, 2013 Rise Set
Actual Time 7:27 AM EST 4:46 PM EST
Civil Twilight 6:56 AM EST 5:17 PM EST
Nautical Twilight 6:22 AM EST 5:52 PM EST
Astronomical Twilight 5:48 AM EST 6:25 PM EST
Moon 11:09 AM EST (12/7) 10:28 PM EST (12/7)
Length of Visible Light 10h 20m
Length of Day
9h 18m
Waxing Crescent, 29% of the Moon is Illuminated
Dec 7
Waxing Crescent
Dec 9
First Quarter
Dec 17
Full
Dec 25
Last Quarter
Jan 1
New

Hourly Weather History & Observations

Time (EST) Temp. Windchill Dew Point Humidity Pressure Visibility Wind Dir Wind Speed Gust Speed Precip Events Conditions
12:56 AM 28.0 °F 22.8 °F 24.1 °F 85% 30.24 in 10.0 mi NW 4.6 mph - N/A   Overcast
1:11 AM 28.4 °F 22.2 °F 24.8 °F 86% 30.19 in 10.0 mi NW 5.8 mph - N/A   Overcast
1:56 AM 28.0 °F 21.7 °F 24.1 °F 85% 30.25 in 10.0 mi NW 5.8 mph - N/A   Overcast
2:11 AM 28.4 °F 22.2 °F 24.8 °F 86% 30.19 in 10.0 mi WNW 5.8 mph - N/A   Overcast
2:56 AM 28.0 °F 20.8 °F 24.1 °F 85% 30.26 in 10.0 mi NNW 6.9 mph - N/A   Overcast
3:30 AM 26.6 °F 16.2 °F 21.2 °F 80% 30.21 in 10.0 mi WNW 11.5 mph - N/A   Overcast
3:46 AM 26.6 °F 19.1 °F 21.2 °F 80% 30.21 in 10.0 mi NW 6.9 mph - N/A   Overcast
3:56 AM 27.0 °F 18.7 °F 21.0 °F 78% 30.28 in 10.0 mi NW 8.1 mph - N/A   Overcast
4:27 AM 26.6 °F 16.2 °F 19.4 °F 74% 30.23 in 10.0 mi NW 11.5 mph - N/A   Overcast
4:46 AM 26.6 °F 17.5 °F 21.2 °F 80% 30.23 in 10.0 mi NW 9.2 mph - N/A   Overcast
4:56 AM 27.0 °F 20.5 °F 21.0 °F 78% 30.30 in 10.0 mi WNW 5.8 mph - N/A   Overcast
5:56 AM 27.0 °F 19.5 °F 21.0 °F 78% 30.33 in 10.0 mi WNW 6.9 mph - N/A   Overcast
6:56 AM 27.0 °F 18.7 °F 21.0 °F 78% 30.36 in 10.0 mi WNW 8.1 mph - 0.01 in   Overcast
7:10 AM 26.6 °F 17.5 °F 21.2 °F 80% 30.30 in 10.0 mi WNW 9.2 mph - N/A   Overcast
7:19 AM 26.6 °F 19.1 °F 21.2 °F 80% 30.31 in 10.0 mi WNW 6.9 mph - N/A   Overcast
7:56 AM 26.1 °F 16.2 °F 19.9 °F 78% 30.39 in 10.0 mi WNW 10.4 mph - N/A   Overcast
8:56 AM 24.1 °F 13.1 °F 16.0 °F 71% 30.42 in 10.0 mi WNW 11.5 mph 20.7 mph N/A   Overcast
9:56 AM 25.0 °F 15.5 °F 16.0 °F 69% 30.45 in 10.0 mi NW 9.2 mph 18.4 mph N/A   Overcast
10:56 AM 25.0 °F 14.8 °F 16.0 °F 69% 30.45 in 10.0 mi NW 10.4 mph - N/A   Overcast
11:56 AM 26.1 °F 16.8 °F 15.1 °F 63% 30.45 in 10.0 mi WNW 9.2 mph - N/A   Scattered Clouds
12:15 PM 26.6 °F 15.2 °F 15.8 °F 64% 30.37 in 10.0 mi West 13.8 mph 19.6 mph N/A   Mostly Cloudy
12:56 PM 25.0 °F 14.8 °F 15.1 °F 66% 30.45 in 10.0 mi NW 10.4 mph - N/A   Overcast
1:35 PM 24.8 °F 14.6 °F 12.2 °F 59% 30.37 in 10.0 mi WNW 10.4 mph - N/A   Scattered Clouds
1:56 PM 26.1 °F 16.8 °F 15.1 °F 63% 30.45 in 10.0 mi West 9.2 mph - N/A   Scattered Clouds
2:08 PM 24.8 °F 14.0 °F 12.2 °F 59% 30.37 in 10.0 mi NW 11.5 mph 17.3 mph N/A   Mostly Cloudy
2:15 PM 24.8 °F 14.0 °F 12.2 °F 59% 30.37 in 10.0 mi NW 11.5 mph - N/A   Scattered Clouds
2:56 PM 25.0 °F 14.8 °F 14.0 °F 63% 30.45 in 10.0 mi West 10.4 mph - N/A   Mostly Cloudy
3:39 PM 24.8 °F 14.0 °F 12.2 °F 59% 30.39 in 10.0 mi WNW 11.5 mph - N/A   Scattered Clouds
3:56 PM 24.1 °F 14.4 °F 12.9 °F 62% 30.47 in 10.0 mi WNW 9.2 mph - N/A   Scattered Clouds
4:04 PM 23.0 °F 11.7 °F 12.2 °F 63% 30.39 in 10.0 mi NNW 11.5 mph - N/A   Mostly Cloudy
4:56 PM 21.9 °F 11.0 °F 12.0 °F 66% 30.48 in 10.0 mi WNW 10.4 mph - N/A   Overcast
5:56 PM 21.0 °F 12.4 °F 10.9 °F 65% 30.51 in 10.0 mi NW 6.9 mph - N/A   Overcast
6:56 PM 19.9 °F 10.1 °F 9.0 °F 62% 30.53 in 10.0 mi NW 8.1 mph - N/A   Overcast
7:56 PM 19.9 °F 13.4 °F 10.0 °F 65% 30.55 in 10.0 mi WNW 4.6 mph - N/A   Overcast
8:56 PM 19.9 °F 12.1 °F 10.0 °F 65% 30.56 in 10.0 mi WNW 5.8 mph - N/A   Overcast
9:56 PM 19.0 °F 13.9 °F 9.0 °F 65% 30.57 in 10.0 mi NW 3.5 mph - N/A   Scattered Clouds
10:41 PM 15.8 °F - 8.6 °F 73% 30.49 in 10.0 mi Calm Calm - N/A   Mostly Cloudy
10:56 PM 17.1 °F - 10.0 °F 74% 30.57 in 10.0 mi Calm Calm - N/A   Overcast
11:26 PM 15.8 °F 10.2 °F 10.4 °F 79% 30.48 in 10.0 mi WSW 3.5 mph - N/A   Scattered Clouds
11:56 PM 15.1 °F - 10.0 °F 80% 30.58 in 10.0 mi Calm Calm - N/A   Scattered Clouds